RH
32 25 14 13 10 9 16 11 12 24 35 57 68 70 62 53 49 56 64 65 64 56 43 32 32 35 37 40 43 46 50 42 34 51 69 81 59 67 68 80 76 77 68
22 27 29 28 25 17 8 6 5 5 6 10 21 50 72 73 70 69 48 46 59 63 64 63 64 58 53 53 56 59 58 60 57 46 41 50 45 57 58 47 47 58 70
33 34 37 37 37 35 30 21 11 6 5 4 5 7 28 58 71 66 66 68 58 46 48 53 56 56 58 64 64 65 67 65 57 50 50 51 54 60 67 74 73 46 43
37 38 40 40 41 40 39 36 26 14 7 6 5 4 4 6 13 28 38 55 59 70 71 63 56 55 58 59 60 58 58 59 54 51 51 51 48 52 56 62 70 72 66
34 41 44 50 52 44 42 40 36 26 15 7 6 6 6 6 6 5 5 6 14 33 50 62 68 72 75 72 69 76 80 82 82 79 70 70 67 62 54 59 58 60 70
36 42 46 47 56 57 48 43 40 29 20 12 7 6 6 6 7 8 9 9 9 8 6 6 14 33 51 52 62 60 63 61 59 62 69 73 73 77 79 73 63 56 47
54 40 46 53 53 62 54 46 42 31 21 12 8 8 7 7 6 6 6 8 9 10 10 11 11 11 11 10 9 9 13 19 24 41 43 39 47 52 46 50 66 68 62
59 42 48 55 52 61 56 48 42 30 23 14 9 9 9 8 8 8 7 7 7 7 8 10 11 13 13 13 12 13 14 14 14 14 13 12 12 13 12 10 26 30 52
58 44 48 56 55 60 51 46 38 26 18 13 10 9 9 9 9 8 8 8 9 9 10 10 10 8 9 12 14 15 15 16 16 16 15 14 14 15 16 16 15 15 11
49 47 49 59 61 61 50 44 28 20 15 11 10 10 10 10 10 10 9 10 9 10 10 11 11 12 13 14 14 14 13 16 16 18 18 19 19 18 21 21 18 15 14
61 58 64 60 65 54 45 27 21 17 13 12 11 11 10 10 9 9 9 9 10 12 15 18 18 17 17 18 19 20 19 19 20 21 22 25 27 26 27 29 28 29 28
88 78 66 72 59 42 26 22 17 13 13 13 12 10 9 9 9 9 9 13 19 21 22 23 24 28 30 33 35 35 35 34 34 34 32 31 30 30 30 31 32 32 32
83 79 74 55 32 25 21 18 14 12 14 14 12 10 9 9 8 7 7 7 7 9 10 17 27 33 38 42 43 43 41 39 37 36 36 37 38 39 37 38 40 43 42
83 63 39 29 26 24 20 16 15 16 16 13 12 10 10 9 8 8 8 8 7 7 7 7 7 8 9 14 22 29 35 38 39 40 41 39 38 37 41 49 48 49 50
52 36 30 29 28 26 23 19 18 18 16 13 11 10 10 9 9 8 9 9 9 8 8 7 7 7 7 7 8 9 13 24 38 44 44 42 44 43 47 53 54 54 50
36 33 32 31 30 28 23 20 19 18 16 13 11 10 9 9 9 10 10 10 9 7 6 6 6 6 6 6 6 8 12 27 42 49 52 54 57 59 56 57 60 58 54
38 36 36 33 28 23 20 20 19 16 15 13 11 10 10 10 10 10 9 6 5 5 6 6 6 6 7 7 8 10 16 18 26 39 49 54 61 68 69 68 75 76 75
43 41 39 34 30 26 26 24 20 18 14 12 11 11 11 10 9 7 5 5 5 5 5 5 6 6 7 9 13 18 24 29 44 49 42 53 74 82 88 90 86 86 91
48 47 46 41 33 29 28 24 19 14 12 11 11 11 9 7 6 5 5 5 5 4 5 5 5 5 6 6 7 7 7 7 8 9 12 26 52 65 84 95 92 89 84
58 53 39 34 36 36 27 19 14 13 12 10 10 8 6 6 5 5 5 4 5 5 6 6 6 7 6 6 5 5 5 6 6 8 8 10 12 15 18 34 65 82 86
56 41 41 45 32 22 20 17 14 12 10 9 8 7 6 6 6 5 5 6 6 7 9 12 15 16 16 16 15 14 12 8 6 5 5 6 6 8 11 12 15 55 81
48 48 35 27 25 25 24 21 17 14 11 11 10 8 7 6 6 6 6 6 7 9 13 18 22 24 24 25 25 26 26 25 24 23 19 13 8 6 7 8 15 19 88
51 39 30 31 33 36 41 41 34 26 22 22 20 15 10 10 10 9 8 8 8 11 15 22 28 31 30 30 29 28 28 28 28 28 28 29 28 23 14 8 9 16 35
55 41 38 48 50 46 50 57 38 27 31 34 32 39 31 29 33 30 28 26 25 27 27 30 33 33 33 32 33 33 32 31 31 31 31 31 31 30 31 29 21 12 11
73 74 84 86 73 63 59 64 63 49 59 61 58 71 68 57 50 46 42 41 40 36 35 34 35 35 36 36 38 39 39 38 38 37 37 36 35 35 36 36 34 33 31
98 93 80 95 95 81 76 71 97 91 94 82 76 90 98 86 69 58 49 44 39 39 39 40 40 38 39 39 39 40 40 41 43 44 45 45 43 41 40 39 40 40 39
Wind_Speed
6 5 3 4 7 7 7 8 9 11 11 11 10 11 9 8 9 11 13 14 15 17 17 18 18 18 16 15 16 15 16 18 16 14 17 17 15 15 14 14 17 18 19
7 6 4 3 5 5 5 5 5 8 11 13 14 14 15 15 14 13 14 15 16 17 17 17 18 20 18 19 19 20 20 21 21 19 20 21 20 20 20 20 19 20 18
8 5 3 3 5 8 9 10 9 7 8 10 13 16 18 19 18 18 16 18 18 18 19 19 19 21 20 21 22 22 22 24 24 24 21 20 20 21 21 22 22 23 22
9 5 2 2 4 6 9 11 12 12 11 11 12 13 16 19 22 23 22 21 21 22 21 21 21 21 21 23 24 24 25 26 27 27 26 25 22 20 21 20 22 23 23
13 10 7 7 8 9 11 12 14 15 14 13 13 14 15 17 18 20 22 24 25 26 26 27 27 28 28 28 29 28 29 29 30 31 31 30 28 26 25 25 26 27 30
18 16 13 11 11 12 13 14 16 17 18 16 16 16 17 18 18 18 19 21 22 24 26 28 31 32 33 32 32 32 33 34 35 35 35 35 33 32 31 32 31 32 32
24 19 16 15 15 16 16 18 19 21 21 19 17 17 18 19 19 20 20 21 23 24 25 26 28 30 32 33 35 36 38 39 40 39 41 40 39 38 39 38 38 38 37
24 22 19 17 18 18 19 20 22 22 23 22 20 19 19 20 20 20 21 22 23 25 26 28 29 30 31 31 33 34 35 36 37 38 38 38 37 38 40 41 43 42 41
22 22 20 20 21 20 21 23 24 26 24 22 20 20 20 19 19 19 20 21 23 24 26 27 29 30 32 33 33 33 33 34 36 37 39 39 39 38 39 40 39 40 43
22 23 22 23 22 22 24 25 27 26 24 22 21 20 20 20 20 20 20 21 22 24 25 28 30 31 32 33 33 34 35 36 37 37 38 38 39 39 39 40 39 41 42
23 23 23 22 22 24 26 27 27 26 24 23 22 21 22 21 20 20 21 21 21 23 24 27 29 31 32 34 35 35 36 36 36 37 37 37 38 39 39 40 41 42 43
20 20 21 21 22 24 26 27 26 24 22 22 22 20 19 19 19 20 20 20 20 21 22 24 26 28 30 32 33 33 34 34 34 34 34 33 33 34 36 39 40 41 43
17 18 18 20 23 24 25 25 23 22 22 22 22 22 21 21 21 22 22 22 22 22 22 22 23 24 26 28 30 31 32 33 34 34 34 33 32 32 33 34 35 37 39
14 16 18 21 22 23 23 23 21 21 22 23 22 22 22 22 22 24 25 26 27 27 26 25 25 26 26 26 28 31 34 35 36 37 36 36 35 34 34 33 34 32 36
17 18 21 21 21 22 23 22 22 23 22 23 23 23 23 23 22 24 25 26 27 27 27 27 27 27 28 29 30 30 31 32 33 34 36 36 35 34 33 33 34 34 37
20 20 20 21 21 22 23 23 22 22 22 23 23 23 23 23 24 24 25 26 26 26 26 25 24 23 24 24 25 26 27 28 30 31 32 34 34 35 35 34 37 38 39
20 20 20 20 21 21 23 22 21 21 22 22 23 23 24 24 24 26 25 25 24 25 24 23 22 21 22 21 20 19 20 24 26 29 29 30 30 28 27 28 30 32 36
20 20 20 20 21 22 24 24 22 22 23 23 23 21 22 23 22 23 23 22 21 20 19 19 19 18 18 17 17 17 17 18 20 22 24 25 26 25 25 26 28 29 29
21 23 23 24 24 24 26 26 23 21 21 22 22 21 21 21 20 20 20 19 18 17 16 16 15 16 16 17 17 18 18 18 19 20 21 22 23 25 27 28 28 27 29
24 26 25 24 24 26 27 24 19 18 18 19 20 21 21 20 19 17 17 17 16 15 14 14 14 14 15 17 18 18 18 18 19 20 20 21 22 23 23 24 25 27 29
26 24 24 25 23 18 16 17 18 18 17 17 20 21 21 19 17 18 17 15 15 14 14 13 14 15 16 16 17 18 19 20 21 21 21 22 22 22 23 25 24 25 26
20 20 19 17 15 15 14 13 14 16 17 18 18 18 18 18 16 16 16 15 14 15 14 15 15 16 17 18 19 19 19 20 20 21 21 22 23 23 23 24 25 25 21
18 16 16 14 13 13 12 10 11 13 15 17 17 16 16 16 15 14 14 15 15 15 15 16 17 18 19 19 20 20 20 20 20 20 21 22 23 23 23 24 23 22 22
15 15 13 11 12 13 12 13 11 12 12 14 11 11 14 12 11 12 13 13 14 15 16 17 18 18 19 20 21 21 22 22 22 22 22 23 23 23 24 23 23 24 24
11 12 12 10 11 14 16 16 13 16 13 16 14 10 13 10 11 12 12 12 14 16 17 18 19 19 20 20 21 22 22 23 24 24 24 24 24 24 25 25 24 24 25
12 12 11 15 17 18 20 15 13 13 15 16 16 11 14 15 15 15 15 15 16 15 16 17 18 19 20 20 21 22 22 23 24 25 25 25 25 25 25 25 25 25 25
Wind_Direction
165 183 200 227 252 261 267 260 258 254 249 251 253 245 237 232 229 237 242 244 241 242 245 250 251 253 251 257 261 258 261 262 259 245 248 254 269 269 267 269 269 283 302
153 137 113 63 43 18 346 319 291 274 259 248 245 243 244 245 247 245 240 243 245 244 245 246 251 256 256 257 258 260 262 266 267 260 250 252 257 260 263 268 273 273 277
156 142 118 73 37 21 9 358 338 311 285 263 248 244 243 243 242 245 247 247 248 247 246 247 248 252 255 258 259 261 264 267 271 271 266 259 255 258 262 263 262 262 264
186 194 234 333 353 357 356 353 348 335 317 303 286 266 254 250 248 248 248 247 249 251 253 255 254 255 259 263 267 269 269 269 270 272 274 274 267 263 265 266 251 253 251
212 224 248 280 304 326 334 337 336 334 322 301 289 281 272 266 262 260 257 254 250 249 249 251 252 253 255 257 258 260 264 267 268 270 272 273 275 274 272 266 262 258 254
225 229 246 271 289 301 313 320 323 322 320 311 296 285 281 279 276 269 264 262 261 259 259 257 255 255 255 256 257 257 257 259 261 263 266 269 270 271 270 267 264 262 263
229 231 248 268 287 293 304 312 314 316 314 308 297 287 280 276 274 273 272 268 267 267 265 263 263 263 262 261 261 261 260 261 262 262 264 266 266 267 268 268 268 267 267
225 229 244 266 281 288 294 302 307 309 309 307 301 293 285 283 282 280 277 275 273 273 272 271 270 269 270 270 268 266 267 267 267 268 267 267 266 267 267 266 265 266 267
221 231 248 263 276 283 290 298 304 307 306 302 298 294 292 288 286 283 281 281 281 279 278 277 275 273 271 271 272 271 270 268 267 268 268 270 269 266 266 265 266 267 264
225 239 253 265 277 284 292 298 303 303 302 299 297 293 291 290 289 287 286 284 281 279 278 277 277 278 278 278 276 275 273 272 271 270 270 270 271 271 270 270 269 268 268
234 242 253 265 276 285 292 297 299 299 299 298 298 297 295 294 292 290 287 283 281 280 276 274 274 274 275 277 277 277 276 274 274 274 272 272 272 271 271 271 271 270 269
232 244 256 267 278 286 291 295 297 297 295 295 295 293 292 292 293 294 295 296 291 286 282 280 278 278 277 277 277 278 279 280 279 278 277 276 275 274 273 272 273 272 272
238 257 265 275 283 288 292 293 292 293 294 292 292 293 297 301 304 304 304 302 302 301 297 292 288 284 282 281 280 280 279 278 278 278 278 279 279 279 277 276 276 277 276
253 265 276 282 285 290 292 291 291 290 288 287 287 288 292 296 299 300 300 301 300 300 299 298 295 293 290 286 283 281 280 279 278 276 276 277 279 279 279 279 276 275 275
262 268 274 278 283 287 288 290 290 288 285 284 286 288 291 292 293 294 295 295 296 297 297 297 296 296 294 292 292 290 287 282 280 279 277 277 277 275 274 274 274 276 278
261 266 272 279 284 287 288 287 285 285 286 287 289 290 290 291 291 292 293 295 295 296 297 297 297 296 294 294 293 289 288 286 283 283 284 284 283 280 276 271 272 274 275
263 270 278 285 289 290 287 287 287 287 285 286 286 290 292 294 296 296 296 297 301 303 303 305 308 308 308 308 306 302 295 291 287 285 288 288 287 287 287 283 280 278 273
269 276 282 287 289 289 289 288 287 286 285 284 285 290 291 293 297 298 301 305 309 311 314 316 316 317 318 320 322 321 319 317 308 301 301 299 294 294 290 293 290 284 284
274 278 280 277 276 277 276 274 276 277 280 284 291 294 300 300 300 303 306 308 309 311 314 317 319 320 322 324 323 323 320 316 313 312 316 318 313 306 299 293 293 288 282
270 271 271 272 273 271 269 272 278 283 288 292 296 298 303 302 303 304 304 306 309 311 314 316 320 322 327 328 326 326 328 329 327 323 323 322 321 323 324 319 303 291 285
262 264 262 266 267 274 283 287 289 289 293 297 298 301 304 303 302 302 303 303 305 307 310 313 317 321 325 326 327 327 328 329 327 327 327 325 321 324 320 317 324 311 305
258 260 265 269 276 283 287 287 290 290 293 296 296 298 299 295 295 293 294 294 296 298 302 306 313 318 321 322 322 322 322 321 325 325 328 327 328 323 324 325 325 329 328
256 256 257 264 272 279 289 295 312 306 302 299 296 297 298 297 297 295 294 295 299 302 304 306 309 312 313 315 316 315 316 318 318 321 324 326 328 326 327 325 324 323 329
248 243 246 263 285 293 301 312 310 313 312 320 313 295 298 300 309 315 311 303 299 303 305 307 308 309 311 312 314 315 317 318 319 321 321 321 323 324 327 328 328 326 324
239 246 256 276 294 304 300 300 315 319 324 323 319 334 339 312 307 313 314 318 312 306 307 309 311 309 309 311 313 314 316 317 318 319 319 319 319 321 324 323 329 327 330
258 272 273 281 291 294 296 299 297 305 316 307 324 330 331 323 318 311 312 311 313 307 305 309 309 307 309 312 313 315 316 317 318 318 319 319 319 318 318 318 320 322 324